Weather History for KMPZ - April, 2014

Change the Weather History Date:

Friday, April 11, 2014

  Actual Average Record
Temperature  
Mean Temperature 55 °F -  
Max Temperature 75 °F 60 °F 81 °F (1968)
Min Temperature 36 °F 39 °F 24 °F (1959)
Degree Days  
Heating Degree Days 10    
Growing Degree Days 5 (Base 50)    
Moisture  
Dew Point 26 °F    
Average Humidity 36    
Maximum Humidity 75    
Minimum Humidity 11    
Precipitation  
Precipitation 0.00 in - - ()
Sea Level Pressure  
Sea Level Pressure 30.01 in    
Wind  
Wind Speed 5 mph (SSW)    
Max Wind Speed 16 mph    
Max Gust Speed 21 mph    
Visibility 10 miles    
Events      
Averages and records for this station are not official NWS values.
T = Trace of Precipitation, MM = Missing Value Source: NWS Daily Summary

Daily Weather History Graph

Daily Weather History Graph

Search for Another Location

Airport or City:

Trip Planner

Search our weather history database for the weather conditions in past years. The results will help you decide how hot, cold, wet, or windy it might be!

Date:

Astronomy

Apr. 11, 2014 Rise Set
Actual Time 6:33 AM CDT 7:41 PM CDT
Civil Twilight 6:05 AM CDT 8:09 PM CDT
Nautical Twilight 5:31 AM CDT 8:43 PM CDT
Astronomical Twilight 4:56 AM CDT 9:19 PM CDT
Moon 4:20 PM CDT (4/11) 4:30 AM CDT (4/11)
Length of Visible Light 14h 04m
Length of Day
13h 08m
Waxing Gibbous, 87% of the Moon is Illuminated
Apr 11
Waxing Gibbous
Apr 15
Full
Apr 22
Last Quarter
Apr 29
New
May 6
First Quarter

Hourly Weather History & Observations

Time (CDT) Temp. Windchill Dew Point Humidity Pressure Visibility Wind Dir Wind Speed Gust Speed Precip Events Conditions
12:15 AM 50.4 °F - 24.6 °F 37% 30.00 in 10.0 mi Calm Calm - N/A   Clear
12:35 AM 44.4 °F - 30.2 °F 57% 30.00 in 10.0 mi Calm Calm - N/A   Clear
12:55 AM 45.1 °F 43.7 °F 28.4 °F 52% 30.01 in 10.0 mi SW 3.5 mph - N/A   Clear
1:15 AM 46.0 °F 43.9 °F 28.8 °F 51% 30.02 in 10.0 mi WNW 4.6 mph - N/A   Clear
1:35 AM 45.3 °F 41.6 °F 28.4 °F 52% 30.00 in 10.0 mi NNW 6.9 mph - N/A   Clear
1:55 AM 43.2 °F 41.5 °F 30.0 °F 60% 30.00 in 10.0 mi SSE 3.5 mph - N/A   Clear
2:15 AM 44.6 °F - 27.7 °F 52% 30.00 in 10.0 mi Calm Calm - N/A   Clear
2:35 AM 43.3 °F - 27.7 °F 54% 30.01 in 10.0 mi Calm Calm - N/A   Clear
2:55 AM 42.8 °F 41.1 °F 29.5 °F 59% 30.03 in 10.0 mi WSW 3.5 mph - N/A   Clear
3:15 AM 43.7 °F - 28.0 °F 54% 30.02 in 10.0 mi Calm Calm - N/A   Clear
3:35 AM 42.8 °F 41.1 °F 27.9 °F 56% 30.03 in 10.0 mi WSW 3.5 mph - N/A   Clear
3:55 AM 42.1 °F - 31.5 °F 66% 30.03 in 10.0 mi Calm Calm - N/A   Clear
4:15 AM 41.4 °F - 28.4 °F 60% 30.03 in 10.0 mi Calm Calm - N/A   Clear
4:35 AM 37.6 °F 35.1 °F 28.6 °F 70% 30.03 in 10.0 mi South 3.5 mph - N/A   Clear
4:55 AM 38.7 °F - 28.4 °F 67% 30.03 in 10.0 mi Calm Calm - N/A   Clear
5:15 AM 38.5 °F 36.1 °F 28.9 °F 69% 30.03 in 10.0 mi South 3.5 mph - N/A   Clear
5:35 AM 37.0 °F 32.4 °F 28.4 °F 71% 30.03 in 10.0 mi SSW 5.8 mph - N/A   Clear
5:55 AM 36.7 °F 32.9 °F 29.3 °F 75% 30.04 in 10.0 mi South 4.6 mph - N/A   Clear
6:15 AM 36.9 °F 33.1 °F 29.5 °F 75% 30.05 in 10.0 mi SSW 4.6 mph - N/A   Clear
6:35 AM 37.4 °F 34.9 °F 29.3 °F 73% 30.06 in 10.0 mi SSW 3.5 mph - N/A   Clear
6:55 AM 38.1 °F - 29.8 °F 72% 30.06 in 10.0 mi Calm Calm - N/A   Clear
7:15 AM 38.1 °F 34.6 °F 29.8 °F 72% 30.06 in 10.0 mi South 4.6 mph - N/A   Clear
7:35 AM 40.1 °F 38.0 °F 31.6 °F 72% 30.07 in 10.0 mi South 3.5 mph - N/A   Clear
7:55 AM 43.2 °F 40.5 °F 32.4 °F 66% 30.07 in 10.0 mi South 4.6 mph - N/A   Clear
8:15 AM 46.6 °F - 31.6 °F 56% 30.07 in 10.0 mi South 5.8 mph - N/A   Clear
8:35 AM 50.4 °F - 29.8 °F 45% 30.07 in 10.0 mi South 6.9 mph - N/A   Clear
9:15 AM 55.9 °F - 30.4 °F 38% 30.07 in 10.0 mi South 9.2 mph - N/A   Clear
9:35 AM 58.5 °F - 29.3 °F 33% 30.07 in 10.0 mi South 9.2 mph - N/A   Clear
9:55 AM 60.6 °F - 29.8 °F 31% 30.07 in 10.0 mi South 9.2 mph - N/A   Clear
10:15 AM 62.6 °F - 27.5 °F 26% 30.07 in 10.0 mi South 10.4 mph - N/A   Clear
10:35 AM 64.2 °F - 23.7 °F 21% 30.07 in 10.0 mi South 9.2 mph - N/A   Clear
10:55 AM 65.5 °F - 23.4 °F 20% 30.07 in 10.0 mi SSW 9.2 mph - N/A   Clear
11:15 AM 66.2 °F - 22.6 °F 19% 30.07 in 10.0 mi SSW 10.4 mph - N/A   Clear
11:35 AM 66.9 °F - 21.2 °F 18% 30.07 in 10.0 mi SSW 11.5 mph 18.4 mph N/A   Clear
11:55 AM 67.5 °F - 21.9 °F 18% 30.07 in 10.0 mi SW 12.7 mph 18.4 mph N/A   Clear
12:15 PM 68.0 °F - 20.8 °F 17% 30.06 in 10.0 mi SW 11.5 mph 16.1 mph N/A   Clear
12:35 PM 68.4 °F - 20.1 °F 16% 30.05 in 10.0 mi SSW 16.1 mph - N/A   Clear
12:55 PM 69.6 °F - 19.4 °F 15% 30.04 in 10.0 mi SW 16.1 mph - N/A   Clear
1:15 PM 70.5 °F - 19.6 °F 15% 30.03 in 10.0 mi SW 12.7 mph 18.4 mph N/A   Clear
1:35 PM 70.7 °F - 17.4 °F 13% 30.03 in 10.0 mi WSW 11.5 mph 19.6 mph N/A   Clear
1:55 PM 71.8 °F - 17.8 °F 13% 30.02 in 10.0 mi WSW 8.1 mph 19.6 mph N/A   Clear
2:15 PM 72.3 °F - 19.6 °F 14% 30.01 in 10.0 mi SSW 15.0 mph 20.7 mph N/A   Clear
2:35 PM 73.0 °F - 19.8 °F 13% 30.00 in 10.0 mi SW 16.1 mph 19.6 mph N/A   Clear
2:55 PM 73.4 °F - 18.7 °F 13% 30.00 in 10.0 mi West 9.2 mph 18.4 mph N/A   Clear
3:15 PM 73.4 °F - 18.3 °F 12% 29.99 in 10.0 mi WSW 16.1 mph 20.7 mph N/A   Clear
3:35 PM 73.9 °F - 18.7 °F 12% 29.98 in 10.0 mi SW 9.2 mph 18.4 mph N/A   Clear
3:55 PM 74.1 °F - 16.7 °F 11% 29.97 in 10.0 mi West 6.9 mph 11.5 mph N/A   Clear
4:15 PM 73.9 °F - 17.8 °F 12% 29.97 in 10.0 mi SW 8.1 mph - N/A   Clear
4:35 PM 74.3 °F - 16.2 °F 11% 29.96 in 10.0 mi WNW 6.9 mph - N/A   Clear
4:55 PM 74.7 °F - 17.2 °F 11% 29.96 in 10.0 mi WSW 11.5 mph - N/A   Clear
5:15 PM 74.3 °F - 16.0 °F 11% 29.95 in 10.0 mi Calm Calm - N/A   Clear
5:35 PM 74.3 °F - 16.5 °F 11% 29.95 in 10.0 mi West 8.1 mph - N/A   Clear
5:55 PM 74.5 °F - 19.8 °F 13% 29.95 in 10.0 mi West 9.2 mph - N/A   Clear
6:15 PM 73.8 °F - 16.9 °F 12% 29.95 in 10.0 mi West 4.6 mph - N/A   Clear
6:35 PM 70.5 °F - 23.4 °F 17% 29.95 in 10.0 mi South 4.6 mph - N/A   Clear
6:55 PM 68.0 °F - 27.0 °F 21% 29.95 in 10.0 mi SSW 6.9 mph - N/A   Clear
7:15 PM 66.7 °F - 28.9 °F 24% 29.95 in 10.0 mi South 6.9 mph - N/A   Clear
7:35 PM 64.9 °F - 27.7 °F 25% 29.95 in 10.0 mi South 6.9 mph - N/A   Clear
7:55 PM 64.2 °F - 27.0 °F 24% 29.95 in 10.0 mi South 8.1 mph - N/A   Clear
8:15 PM 63.0 °F - 26.6 °F 25% 29.95 in 10.0 mi South 6.9 mph - N/A   Clear
8:35 PM 61.7 °F - 27.3 °F 27% 29.95 in 10.0 mi South 6.9 mph - N/A   Clear
8:55 PM 60.8 °F - 28.4 °F 29% 29.96 in 10.0 mi South 8.1 mph - N/A   Clear
9:15 PM 60.4 °F - 28.6 °F 30% 29.96 in 10.0 mi SSE 8.1 mph - N/A   Clear
9:35 PM 57.6 °F - 29.8 °F 35% 29.97 in 10.0 mi SSE 8.1 mph - N/A   Clear
9:55 PM 58.6 °F - 29.8 °F 34% 29.97 in 10.0 mi South 10.4 mph - N/A   Clear
10:15 PM 58.5 °F - 29.5 °F 33% 29.97 in 10.0 mi South 9.2 mph - N/A   Clear
10:35 PM 57.6 °F - 30.0 °F 35% 29.97 in 10.0 mi South 10.4 mph - N/A   Clear
10:55 PM 57.2 °F - 30.2 °F 36% 29.96 in 10.0 mi South 10.4 mph - N/A   Clear
11:15 PM 57.6 °F - 30.6 °F 36% 29.96 in 10.0 mi South 9.2 mph - N/A   Clear
11:35 PM 58.1 °F - 30.0 °F 34% 29.96 in 10.0 mi South 9.2 mph - N/A   Clear
11:55 PM 58.5 °F - 29.3 °F 33% 29.96 in 10.0 mi SSE 8.1 mph - N/A   Clear